Left ArrowRight Arrow

Hourly Observations for May 20, 2024

Temp ( °F °C ) Dew Point ( °F °C ) Humidity (%) Winds ( mph kmh ) Pressure ( in mb ) Visibility ( mi km ) Precip ( " mm )
12:53 am 00:53 Clear 72 22.2 67 19.4 84 84 E 5 7 29.95 1014 10 16 0.00 0.00
1:53 am 01:53 Clear 71 21.7 67 19.4 87 87 ENE 5 7 29.95 1014 10 16 0.00 0.00
2:53 am 02:53 Clear 70 21.1 67 19.4 90 90 E 5 7 29.95 1014 10 16 0.00 0.00
3:53 am 03:53 Clear 69 20.6 66 18.9 90 90 NE 6 9 29.95 1014 10 16 0.00 0.00
4:53 am 04:53 Clear 67 19.4 66 18.9 97 97 NE 7 11 29.95 1014 10 16 0.00 0.00
5:53 am 05:53 Sunny 67 19.4 66 18.9 97 97 Calm 29.97 1015 9 14 0.00 0.00
6:53 am 06:53 Sunny 69 20.6 66 18.9 90 90 NE 5 7 29.98 1015 10 16 0.00 0.00
7:12 am 07:12 Mostly Sunny 69 20.6 66 18.9 90 90 NE 9 15 29.99 1016 10 16 0.00 0.00
7:53 am 07:53 Partly Cloudy 71 21.7 66 18.9 84 84 NE 9 15 29.98 1015 10 16 0.00 0.00
8:35 am 08:35 Mostly Cloudy 71 21.7 65 18.3 81 81 ENE 9 15 30.01 1016 10 16 0.00 0.00
8:53 am 08:53 Cloudy 71 21.7 65 18.3 81 81 NE 8 13 30.01 1016 10 16 0.00 0.00
9:53 am 09:53 Cloudy 70 21.1 64 17.8 81 81 E 8 13 30.02 1017 10 16 0.00 0.00
10:38 am 10:38 Cloudy 71 21.7 65 18.3 81 81 ENE 5 7 30.05 1018 10 16 0.00 0.00
10:53 am 10:53 Cloudy 71 21.7 64 17.8 79 79 ENE 6 9 30.04 1017 10 16 0.00 0.00
11:53 am 11:53 Cloudy 73 22.8 64 17.8 73 73 NE 7 11 30.04 1017 10 16 0.00 0.00
12:53 pm 12:53 Mostly Cloudy 78 25.6 65 18.3 64 64 VRB 6 9 30.01 1016 10 16 0.00 0.00
1:24 pm 13:24 Mostly Cloudy 78 25.6 64 17.8 62 62 VRB 7 11 30.00 1016 10 16 0.00 0.00
1:34 pm 13:34 Mostly Cloudy 78 25.6 64 17.8 62 62 ESE 5 7 30.00 1016 10 16 0.00 0.00
1:53 pm 13:53 Mostly Cloudy 80 26.7 65 18.3 60 60 VRB 5 7 30.00 1016 10 16 0.00 0.00
2:53 pm 14:53 Mostly Cloudy 82 27.8 65 18.3 56 56 VRB 6 9 29.98 1015 10 16 0.00 0.00
3:53 pm 15:53 Mostly Cloudy 80 26.7 64 17.8 58 58 ENE 6 9 29.97 1015 10 16 0.00 0.00
4:53 pm 16:53 Mostly Cloudy 82 27.8 64 17.8 55 55 ENE 7 11 29.96 1015 10 16 0.00 0.00
5:53 pm 17:53 Mostly Cloudy 81 27.2 64 17.8 57 57 E 7 11 29.95 1014 10 16 0.00 0.00
6:53 pm 18:53 Sunny 78 25.6 64 17.8 62 62 ESE 5 7 29.96 1015 10 16 0.00 0.00
7:53 pm 19:53 Clear 74 23.3 64 17.8 71 71 ESE 3 6 29.97 1015 10 16 0.00 0.00
8:07 pm 20:07 Mostly Clear 74 23.3 64 17.8 71 71 Calm 29.98 1015 10 16 0.00 0.00
8:53 pm 20:53 Mostly Clear 72 22.2 67 19.4 84 84 Calm 29.98 1015 10 16 0.00 0.00
9:53 pm 21:53 Clear 70 21.1 67 19.4 90 90 Calm 29.99 1016 10 16 0.00 0.00
10:53 pm 22:53 Clear 68 20 66 18.9 93 93 Calm 30.00 1016 10 16 0.00 0.00
11:53 pm 23:53 Clear 67 19.4 64 17.8 90 90 Calm 29.99 1016 10 16 0.00 0.00

Powered by Vaisala Xweather